| time (UTC) | temp F | wind direction | speed MPH | gust MPH | rain 1hr in | rain 24hr in | rain mn in | humidity % | barometer mb |
| 20260831212530 | 95 | 178 | 3.0 | 6.0 | 0.00 | 0.00 | 0.00 | 51 | 1021.2 |
| 20260831212025 | 95 | 280 | 3.0 | 3.0 | 0.00 | 0.00 | 0.00 | 53 | 1021.2 |
| 20260831211520 | 95 | 153 | 4.0 | 5.0 | 0.00 | 0.00 | 0.00 | 54 | 1021.3 |
| 20260831211019 | 95 | 112 | 1.0 | 5.0 | 0.00 | 0.00 | 0.00 | 53 | 1021.2 |
| 20260831210514 | 95 | 132 | 0.0 | 2.0 | 0.00 | 0.00 | 0.00 | 53 | 1021.2 |
| 20260831210010 | 96 | 138 | 1.0 | 2.0 | 0.00 | 0.00 | 0.00 | 51 | 1021.2 |
| 20260831205505 | 96 | 157 | 1.0 | 7.0 | 0.00 | 0.00 | 0.00 | 52 | 1021.4 |
| 20260831205000 | 96 | 139 | 0.0 | 6.0 | 0.00 | 0.00 | 0.00 | 53 | 1021.4 |
| 20260831204455 | 96 | 153 | 2.0 | 5.0 | 0.00 | 0.00 | 0.00 | 52 | 1021.2 |
| 20260831203953 | 95 | 188 | 3.0 | 6.0 | 0.00 | 0.00 | 0.00 | 54 | 1021.3 |
| 20260831203448 | 96 | 195 | 3.0 | 3.0 | 0.00 | 0.00 | 0.00 | 51 | 1021.6 |
| 20260831202945 | 95 | 213 | 1.0 | 5.0 | 0.00 | 0.00 | 0.00 | 53 | 1021.5 |
| 20260831202442 | 97 | 157 | 2.0 | 5.0 | 0.00 | 0.00 | 0.00 | 51 | 1021.6 |
| 20260831201940 | 97 | 216 | 1.0 | 2.0 | 0.00 | 0.00 | 0.00 | 52 | 1021.7 |
| 20260831201439 | 96 | 155 | 3.0 | 3.0 | 0.00 | 0.00 | 0.00 | 51 | 1021.6 |
| 20260831200935 | 96 | 101 | 1.0 | 5.0 | 0.00 | 0.00 | 0.00 | 52 | 1021.8 |
| 20260831200430 | 96 | 167 | 2.0 | 6.0 | 0.00 | 0.00 | 0.00 | 52 | 1021.8 |
| 20260831195925 | 98 | 168 | 1.0 | 5.0 | 0.00 | 0.00 | 0.00 | 50 | 1021.9 |
| 20260831195420 | 98 | 203 | 3.0 | 6.0 | 0.00 | 0.00 | 0.00 | 49 | 1021.9 |
| 20260831194921 | 98 | 220 | 2.0 | 3.0 | 0.00 | 0.00 | 0.00 | 49 | 1022.0 |
| 20260831194416 | 98 | 142 | 1.0 | 5.0 | 0.00 | 0.00 | 0.00 | 49 | 1022.2 |
| 20260831193915 | 97 | 214 | 3.0 | 5.0 | 0.00 | 0.00 | 0.00 | 52 | 1021.9 |
| 20260831193411 | 98 | 136 | 1.0 | 3.0 | 0.00 | 0.00 | 0.00 | 51 | 1022.3 |
| 20260831192906 | 98 | 217 | 1.0 | 3.0 | 0.00 | 0.00 | 0.00 | 52 | 1022.1 |
| 20260831192401 | 95 | 225 | 2.0 | 3.0 | 0.00 | 0.00 | 0.00 | 54 | 1022.4 |
| 20260831191857 | 95 | 142 | 0.0 | 5.0 | 0.00 | 0.00 | 0.00 | 53 | 1022.3 |
| 20260831191352 | 96 | 34 | 3.0 | 7.0 | 0.00 | 0.00 | 0.00 | 51 | 1022.2 |
| 20260831190848 | 95 | 140 | 1.0 | 2.0 | 0.00 | 0.00 | 0.00 | 54 | 1022.5 |
| 20260831190347 | 96 | 158 | 3.0 | 3.0 | 0.00 | 0.00 | 0.00 | 53 | 1022.4 |
| 20260831185842 | 96 | 256 | 5.0 | 7.0 | 0.00 | 0.00 | 0.00 | 52 | 1022.3 |
| 20260831185338 | 96 | 135 | 1.0 | 7.0 | 0.00 | 0.00 | 0.00 | 52 | 1022.4 |
| 20260831184837 | 95 | 174 | 2.0 | 6.0 | 0.00 | 0.00 | 0.00 | 53 | 1022.4 |
| 20260831184332 | 96 | 105 | 2.0 | 7.0 | 0.00 | 0.00 | 0.00 | 52 | 1022.6 |
| 20260831183827 | 97 | 140 | 2.0 | 5.0 | 0.00 | 0.00 | 0.00 | 52 | 1022.5 |
| 20260831183327 | 96 | 184 | 4.0 | 7.0 | 0.00 | 0.00 | 0.00 | 52 | 1022.6 |
| 20260831182826 | 95 | 279 | 3.0 | 6.0 | 0.00 | 0.00 | 0.00 | 53 | 1022.6 |
| 20260831182321 | 95 | 173 | 1.0 | 6.0 | 0.00 | 0.00 | 0.00 | 56 | 1022.8 |
| 20260831181816 | 94 | 265 | 1.0 | 5.0 | 0.00 | 0.00 | 0.00 | 55 | 1022.7 |
| 20260831181311 | 95 | 127 | 2.0 | 5.0 | 0.00 | 0.00 | 0.00 | 55 | 1022.8 |
| 20260831180807 | 93 | 274 | 5.0 | 7.0 | 0.00 | 0.00 | 0.00 | 56 | 1022.9 |
| 20260831180301 | 93 | 178 | 2.0 | 3.0 | 0.00 | 0.00 | 0.00 | 58 | 1022.8 |
| 20260831175800 | 94 | 151 | 2.0 | 6.0 | 0.00 | 0.00 | 0.00 | 58 | 1022.8 |
| 20260831175257 | 93 | 93 | 4.0 | 6.0 | 0.00 | 0.00 | 0.00 | 58 | 1022.9 |
| 20260831174752 | 93 | 16 | 5.0 | 7.0 | 0.00 | 0.00 | 0.00 | 57 | 1023.2 |
| 20260831174248 | 94 | 200 | 1.0 | 7.0 | 0.00 | 0.00 | 0.00 | 57 | 1023.1 |
| 20260831173747 | 93 | 148 | 1.0 | 6.0 | 0.00 | 0.00 | 0.00 | 58 | 1023.1 |
| 20260831173241 | 93 | 135 | 2.0 | 6.0 | 0.00 | 0.00 | 0.00 | 57 | 1023.3 |
| 20260831172737 | 93 | 126 | 1.0 | 3.0 | 0.00 | 0.00 | 0.00 | 58 | 1023.2 |
| 20260831172232 | 94 | 313 | 2.0 | 2.0 | 0.00 | 0.00 | 0.00 | 57 | 1023.4 |
| 20260831171726 | 95 | 124 | 3.0 | 6.0 | 0.00 | 0.00 | 0.00 | 55 | 1023.2 |
| 20260831171224 | 93 | 123 | 1.0 | 6.0 | 0.00 | 0.00 | 0.00 | 59 | 1023.3 |
| 20260831170720 | 93 | 138 | 1.0 | 5.0 | 0.00 | 0.00 | 0.00 | 57 | 1023.6 |
| 20260831170216 | 93 | 184 | 5.0 | 7.0 | 0.00 | 0.00 | 0.00 | 58 | 1023.4 |
| 20260831165712 | 94 | 154 | 2.0 | 5.0 | 0.00 | 0.00 | 0.00 | 57 | 1023.4 |
| 20260831165209 | 92 | 123 | 1.0 | 5.0 | 0.00 | 0.00 | 0.00 | 60 | 1023.7 |
| 20260831164704 | 93 | 136 | 2.0 | 3.0 | 0.00 | 0.00 | 0.00 | 59 | 1023.4 |
| 20260831164200 | 92 | 341 | 3.0 | 9.0 | 0.00 | 0.00 | 0.00 | 60 | 1023.5 |
| 20260831163655 | 94 | 146 | 3.0 | 9.0 | 0.00 | 0.00 | 0.00 | 58 | 1023.6 |
| 20260831163151 | 94 | 132 | 0.0 | 6.0 | 0.00 | 0.00 | 0.00 | 57 | 1023.5 |
| 20260831162649 | 94 | 227 | 1.0 | 3.0 | 0.00 | 0.00 | 0.00 | 58 | 1023.6 |
| 20260831162148 | 93 | 221 | 3.0 | 5.0 | 0.00 | 0.00 | 0.00 | 58 | 1023.6 |
| 20260831161644 | 93 | 257 | 1.0 | 8.0 | 0.00 | 0.00 | 0.00 | 59 | 1023.7 |
| 20260831161140 | 93 | 281 | 4.0 | 6.0 | 0.00 | 0.00 | 0.00 | 58 | 1023.5 |
| 20260831160639 | 94 | 238 | 2.0 | 8.0 | 0.00 | 0.00 | 0.00 | 58 | 1023.6 |
| 20260831160134 | 94 | 186 | 1.0 | 5.0 | 0.00 | 0.00 | 0.00 | 58 | 1023.5 |
| 20260831155634 | 92 | 359 | 0.0 | 6.0 | 0.00 | 0.00 | 0.00 | 60 | 1023.6 |
| 20260831155130 | 91 | 191 | 1.0 | 9.0 | 0.00 | 0.00 | 0.00 | 61 | 1023.7 |
| 20260831154625 | 92 | 270 | 3.0 | 5.0 | 0.00 | 0.00 | 0.00 | 60 | 1023.9 |
| 20260831154120 | 91 | 257 | 3.0 | 6.0 | 0.00 | 0.00 | 0.00 | 61 | 1023.8 |
| 20260831153619 | 91 | 216 | 3.0 | 6.0 | 0.00 | 0.00 | 0.00 | 62 | 1023.8 |
| 20260831153116 | 91 | 173 | 1.0 | 3.0 | 0.00 | 0.00 | 0.00 | 61 | 1023.8 |
| 20260831152611 | 91 | 286 | 3.0 | 5.0 | 0.00 | 0.00 | 0.00 | 60 | 1023.9 |
| 20260831152107 | 91 | 257 | 3.0 | 3.0 | 0.00 | 0.00 | 0.00 | 62 | 1023.6 |
| 20260831151606 | 91 | 119 | 1.0 | 6.0 | 0.00 | 0.00 | 0.00 | 61 | 1023.5 |
| 20260831151101 | 91 | 164 | 2.0 | 8.0 | 0.00 | 0.00 | 0.00 | 62 | 1024.0 |
| 20260831150556 | 91 | 145 | 1.0 | 6.0 | 0.00 | 0.00 | 0.00 | 62 | 1023.6 |
| 20260831150052 | 90 | 223 | 4.0 | 6.0 | 0.00 | 0.00 | 0.00 | 65 | 1023.7 |
| 20260831145546 | 90 | 153 | 1.0 | 2.0 | 0.00 | 0.00 | 0.00 | 65 | 1023.9 |
| 20260831145042 | 89 | 235 | 1.0 | 5.0 | 0.00 | 0.00 | 0.00 | 67 | 1023.7 |
| 20260831144538 | 89 | 258 | 1.0 | 3.0 | 0.00 | 0.00 | 0.00 | 68 | 1023.8 |
| 20260831144033 | 88 | 142 | 0.0 | 3.0 | 0.00 | 0.00 | 0.00 | 70 | 1023.7 |
| 20260831143527 | 87 | 187 | 1.0 | 3.0 | 0.00 | 0.00 | 0.00 | 71 | 1023.9 |
| 20260831143023 | 86 | 109 | 0.0 | 5.0 | 0.00 | 0.00 | 0.00 | 72 | 1023.7 |
| 20260831142520 | 87 | 141 | 1.0 | 6.0 | 0.00 | 0.00 | 0.00 | 71 | 1023.7 |
| 20260831142015 | 86 | 148 | 2.0 | 2.0 | 0.00 | 0.00 | 0.00 | 71 | 1023.7 |
| 20260831141513 | 86 | 133 | 2.0 | 3.0 | 0.00 | 0.00 | 0.00 | 72 | 1023.8 |
| 20260831141008 | 86 | 135 | 2.0 | 3.0 | 0.00 | 0.00 | 0.00 | 73 | 1023.7 |
| 20260831140503 | 86 | 156 | 0.0 | 3.0 | 0.00 | 0.00 | 0.00 | 75 | 1023.6 |
| 20260831140002 | 85 | 279 | 1.0 | 1.0 | 0.00 | 0.00 | 0.00 | 74 | 1023.7 |
| 20260831135500 | 84 | 214 | 2.0 | 2.0 | 0.00 | 0.00 | 0.00 | 75 | 1023.8 |
| 20260831134955 | 83 | 141 | 1.0 | 3.0 | 0.00 | 0.00 | 0.00 | 77 | 1023.8 |
| 20260831134452 | 83 | 236 | 2.0 | 3.0 | 0.00 | 0.00 | 0.00 | 78 | 1023.5 |
| 20260831133951 | 82 | 138 | 0.0 | 1.0 | 0.00 | 0.00 | 0.00 | 79 | 1023.5 |
| 20260831133446 | 82 | 122 | 2.0 | 2.0 | 0.00 | 0.00 | 0.00 | 79 | 1023.5 |
| 20260831132941 | 82 | 127 | 1.0 | 2.0 | 0.00 | 0.00 | 0.00 | 80 | 1023.5 |
| 20260831132437 | 81 | 169 | 1.0 | 1.0 | 0.00 | 0.00 | 0.00 | 82 | 1023.7 |
| 20260831131936 | 80 | 125 | 0.0 | 1.0 | 0.00 | 0.00 | 0.00 | 86 | 1023.6 |
| 20260831131431 | 78 | 134 | 0.0 | 1.0 | 0.00 | 0.00 | 0.00 | 89 | 1023.5 |
| 20260831130927 | 77 | 139 | 0.0 | 1.0 | 0.00 | 0.00 | 0.00 | 92 | 1023.8 |
| 20260831130422 | 75 | 181 | 0.0 | 1.0 | 0.00 | 0.00 | 0.00 | 96 | 1023.5 |
| 20260831125922 | 74 | 266 | 0.0 | 2.0 | 0.00 | 0.00 | 0.00 | 99 | 1023.5 |
| 20260831125416 | 74 | 129 | 0.0 | 0.0 | 0.00 | 0.00 | 0.00 | 99 | 1023.5 |
| 20260831124912 | 73 | 130 | 0.0 | 1.0 | 0.00 | 0.00 | 0.00 | 99 | 1023.5 |
| 20260831124408 | 73 | 131 | 1.0 | 1.0 | 0.00 | 0.00 | 0.00 | 99 | 1023.5 |
| 20260831123908 | 72 | 118 | 0.0 | 1.0 | 0.00 | 0.00 | 0.00 | 99 | 1023.3 |
| 20260831123407 | 72 | 126 | 0.0 | 0.0 | 0.00 | 0.00 | 0.00 | 99 | 1023.2 |
| 20260831122902 | 72 | 123 | 0.0 | 0.0 | 0.00 | 0.00 | 0.00 | 99 | 1023.3 |
| 20260831122357 | 71 | 121 | 0.0 | 0.0 | 0.00 | 0.00 | 0.00 | 99 | 1023.2 |
| 20260831121852 | 71 | 122 | 0.0 | 0.0 | 0.00 | 0.00 | 0.00 | 99 | 1023.2 |
| 20260831121348 | 70 | 123 | 0.0 | 0.0 | 0.00 | 0.00 | 0.00 | 99 | 1023.1 |
| 20260831120844 | 70 | 118 | 0.0 | 0.0 | 0.00 | 0.00 | 0.00 | 99 | 1023.1 |
| 20260831120338 | 70 | 125 | 0.0 | 0.0 | 0.00 | 0.00 | 0.00 | 99 | 1023.2 |
| 20260831115833 | 69 | 124 | 0.0 | 0.0 | 0.00 | 0.00 | 0.00 | 99 | 1023.2 |
| 20260831115330 | 69 | 125 | 0.0 | 0.0 | 0.00 | 0.00 | 0.00 | 99 | 1023.1 |
| 20260831114829 | 69 | 125 | 0.0 | 0.0 | 0.00 | 0.00 | 0.00 | 99 | 1022.9 |
| 20260831114328 | 69 | 122 | 0.0 | 0.0 | 0.00 | 0.00 | 0.00 | 99 | 1022.9 |
| 20260831113824 | 69 | 123 | 0.0 | 0.0 | 0.00 | 0.00 | 0.00 | 99 | 1022.7 |
| 20260831113323 | 69 | 121 | 0.0 | 0.0 | 0.00 | 0.00 | 0.00 | 99 | 1022.9 |
| 20260831112818 | 68 | 119 | 0.0 | 0.0 | 0.00 | 0.00 | 0.00 | 99 | 1022.7 |
| 20260831112313 | 68 | 119 | 0.0 | 0.0 | 0.00 | 0.00 | 0.00 | 99 | 1022.8 |
| 20260831111808 | 68 | 118 | 0.0 | 0.0 | 0.00 | 0.00 | 0.00 | 99 | 1022.7 |
| 20260831111259 | 68 | 120 | 0.0 | 0.0 | 0.00 | 0.00 | 0.00 | 99 | 1022.8 |
| 20260831110754 | 69 | 119 | 0.0 | 0.0 | 0.00 | 0.00 | 0.00 | 99 | 1022.6 |
| 20260831110249 | 69 | 119 | 0.0 | 0.0 | 0.00 | 0.00 | 0.00 | 99 | 1022.3 |
| 20260831105747 | 69 | 119 | 0.0 | 0.0 | 0.00 | 0.00 | 0.00 | 99 | 1022.3 |
| 20260831105243 | 69 | 119 | 0.0 | 0.0 | 0.00 | 0.00 | 0.00 | 99 | 1022.5 |
| 20260831104743 | 69 | 119 | 0.0 | 0.0 | 0.00 | 0.00 | 0.00 | 99 | 1022.3 |
| 20260831104240 | 69 | 119 | 0.0 | 0.0 | 0.00 | 0.00 | 0.00 | 99 | 1022.1 |
| 20260831103735 | 69 | 119 | 0.0 | 0.0 | 0.00 | 0.00 | 0.00 | 99 | 1022.4 |
| 20260831103230 | 69 | 119 | 0.0 | 0.0 | 0.00 | 0.00 | 0.00 | 99 | 1022.3 |
| 20260831102730 | 69 | 119 | 0.0 | 0.0 | 0.00 | 0.00 | 0.00 | 99 | 1022.3 |
| 20260831102225 | 69 | 119 | 0.0 | 0.0 | 0.00 | 0.00 | 0.00 | 99 | 1022.3 |
| 20260831101720 | 69 | 118 | 0.0 | 0.0 | 0.00 | 0.00 | 0.00 | 99 | 1022.0 |
| 20260831101216 | 69 | 119 | 0.0 | 0.0 | 0.00 | 0.00 | 0.00 | 99 | 1022.1 |
| 20260831100712 | 69 | 120 | 0.0 | 0.0 | 0.00 | 0.00 | 0.00 | 99 | 1022.0 |
| 20260831100208 | 69 | 127 | 0.0 | 0.0 | 0.00 | 0.00 | 0.00 | 99 | 1022.0 |
| 20260831095706 | 69 | 127 | 0.0 | 0.0 | 0.00 | 0.00 | 0.00 | 99 | 1021.6 |
| 20260831095201 | 69 | 127 | 0.0 | 0.0 | 0.00 | 0.00 | 0.00 | 99 | 1021.7 |
| 20260831094656 | 69 | 127 | 0.0 | 0.0 | 0.00 | 0.00 | 0.00 | 99 | 1021.8 |
| 20260831094152 | 69 | 127 | 0.0 | 0.0 | 0.00 | 0.00 | 0.00 | 99 | 1021.6 |
| 20260831093648 | 69 | 127 | 0.0 | 0.0 | 0.00 | 0.00 | 0.00 | 99 | 1021.6 |
| 20260831093143 | 69 | 127 | 0.0 | 0.0 | 0.00 | 0.00 | 0.00 | 99 | 1021.4 |
| 20260831092639 | 69 | 127 | 0.0 | 0.0 | 0.00 | 0.00 | 0.00 | 99 | 1021.7 |
| 20260831092135 | 69 | 127 | 0.0 | 0.0 | 0.00 | 0.00 | 0.00 | 99 | 1021.6 |
| 20260831091634 | 69 | 127 | 0.0 | 0.0 | 0.00 | 0.00 | 0.00 | 99 | 1021.8 |
| 20260831091130 | 69 | 127 | 0.0 | 0.0 | 0.00 | 0.00 | 0.00 | 99 | 1021.8 |
| 20260831090625 | 69 | 127 | 0.0 | 0.0 | 0.00 | 0.00 | 0.00 | 99 | 1021.6 |
| 20260831090121 | 69 | 127 | 0.0 | 0.0 | 0.00 | 0.00 | 0.00 | 99 | 1021.7 |
| 20260831085616 | 69 | 127 | 0.0 | 0.0 | 0.00 | 0.00 | 0.00 | 99 | 1021.6 |
| 20260831085112 | 69 | 127 | 0.0 | 0.0 | 0.00 | 0.00 | 0.00 | 99 | 1021.7 |
| 20260831084608 | 69 | 127 | 0.0 | 0.0 | 0.00 | 0.00 | 0.00 | 99 | 1021.4 |
| 20260831084103 | 69 | 127 | 0.0 | 0.0 | 0.00 | 0.00 | 0.00 | 99 | 1021.5 |
| 20260831083559 | 69 | 127 | 0.0 | 0.0 | 0.00 | 0.00 | 0.00 | 99 | 1021.4 |
| 20260831083054 | 69 | 128 | 0.0 | 0.0 | 0.00 | 0.00 | 0.00 | 99 | 1021.4 |
| 20260831082553 | 69 | 121 | 0.0 | 0.0 | 0.00 | 0.00 | 0.00 | 99 | 1021.5 |
| 20260831082048 | 69 | 124 | 0.0 | 0.0 | 0.00 | 0.00 | 0.00 | 99 | 1021.5 |
| 20260831081544 | 69 | 125 | 0.0 | 0.0 | 0.00 | 0.00 | 0.00 | 99 | 1021.3 |
| 20260831081035 | 68 | 125 | 0.0 | 0.0 | 0.00 | 0.00 | 0.00 | 99 | 1021.5 |
| 20260831080535 | 69 | 123 | 0.0 | 0.0 | 0.00 | 0.00 | 0.00 | 99 | 1021.5 |
| 20260831080030 | 69 | 123 | 0.0 | 0.0 | 0.00 | 0.00 | 0.00 | 99 | 1021.3 |
| 20260831075525 | 69 | 123 | 0.0 | 0.0 | 0.00 | 0.00 | 0.00 | 99 | 1021.4 |
| 20260831075021 | 69 | 123 | 0.0 | 0.0 | 0.00 | 0.00 | 0.00 | 99 | 1021.4 |
| 20260831074520 | 69 | 123 | 0.0 | 0.0 | 0.00 | 0.00 | 0.00 | 99 | 1021.4 |
| 20260831074020 | 69 | 123 | 0.0 | 0.0 | 0.00 | 0.00 | 0.00 | 99 | 1021.5 |
| 20260831073515 | 69 | 123 | 0.0 | 0.0 | 0.00 | 0.00 | 0.00 | 99 | 1021.4 |
| 20260831073014 | 69 | 123 | 0.0 | 0.0 | 0.00 | 0.00 | 0.00 | 99 | 1021.4 |
| 20260831072510 | 70 | 123 | 0.0 | 0.0 | 0.00 | 0.00 | 0.00 | 99 | 1021.4 |
| 20260831072006 | 70 | 123 | 0.0 | 0.0 | 0.00 | 0.00 | 0.00 | 99 | 1021.4 |
| 20260831071505 | 70 | 123 | 0.0 | 0.0 | 0.00 | 0.00 | 0.00 | 99 | 1021.5 |
| 20260831071000 | 70 | 123 | 0.0 | 0.0 | 0.00 | 0.00 | 0.00 | 99 | 1021.4 |
| 20260831070458 | 70 | 123 | 0.0 | 0.0 | 0.00 | 0.00 | 0.00 | 99 | 1021.7 |
| 20260831065958 | 70 | 123 | 0.0 | 0.0 | 0.00 | 0.00 | 0.00 | 99 | 1021.6 |
| 20260831065457 | 70 | 123 | 0.0 | 0.0 | 0.00 | 0.00 | 0.00 | 99 | 1021.6 |
| 20260831064952 | 70 | 123 | 0.0 | 0.0 | 0.00 | 0.00 | 0.00 | 99 | 1021.7 |
| 20260831064447 | 70 | 123 | 0.0 | 0.0 | 0.00 | 0.00 | 0.00 | 99 | 1021.8 |
| 20260831063942 | 70 | 123 | 0.0 | 0.0 | 0.00 | 0.00 | 0.00 | 99 | 1021.8 |
| 20260831063437 | 70 | 123 | 0.0 | 0.0 | 0.00 | 0.00 | 0.00 | 99 | 1021.7 |
| 20260831062931 | 70 | 123 | 0.0 | 0.0 | 0.00 | 0.00 | 0.00 | 99 | 1021.9 |
| 20260831062429 | 70 | 123 | 0.0 | 0.0 | 0.00 | 0.00 | 0.00 | 99 | 1022.0 |
| 20260831061926 | 70 | 123 | 0.0 | 0.0 | 0.00 | 0.00 | 0.00 | 99 | 1021.8 |
| 20260831061425 | 70 | 123 | 0.0 | 0.0 | 0.00 | 0.00 | 0.00 | 99 | 1021.9 |
| 20260831060921 | 70 | 123 | 0.0 | 0.0 | 0.00 | 0.00 | 0.00 | 99 | 1021.9 |
| 20260831060416 | 70 | 124 | 0.0 | 0.0 | 0.00 | 0.00 | 0.00 | 99 | 1021.8 |
| 20260831055915 | 70 | 123 | 0.0 | 0.0 | 0.00 | 0.00 | 0.00 | 99 | 1021.9 |
| 20260831055410 | 70 | 123 | 0.0 | 0.0 | 0.00 | 0.00 | 0.00 | 99 | 1021.9 |
| 20260831054906 | 70 | 123 | 0.0 | 0.0 | 0.00 | 0.00 | 0.00 | 99 | 1022.0 |
| 20260831054401 | 70 | 122 | 0.0 | 0.0 | 0.00 | 0.00 | 0.00 | 99 | 1022.0 |
| 20260831053859 | 70 | 122 | 0.0 | 0.0 | 0.00 | 0.00 | 0.00 | 99 | 1022.0 |
| 20260831053357 | 70 | 122 | 0.0 | 0.0 | 0.00 | 0.00 | 0.00 | 99 | 1021.9 |
| 20260831052852 | 71 | 122 | 0.0 | 0.0 | 0.00 | 0.00 | 0.00 | 99 | 1021.9 |
| 20260831052346 | 71 | 122 | 0.0 | 0.0 | 0.00 | 0.00 | 0.00 | 99 | 1021.9 |
| 20260831051845 | 71 | 122 | 0.0 | 0.0 | 0.00 | 0.00 | 0.00 | 99 | 1021.8 |
| 20260831051343 | 71 | 122 | 0.0 | 0.0 | 0.00 | 0.00 | 0.00 | 99 | 1021.8 |
| 20260831050838 | 71 | 123 | 0.0 | 0.0 | 0.00 | 0.00 | 0.00 | 99 | 1021.9 |
| 20260831050337 | 71 | 123 | 0.0 | 0.0 | 0.00 | 0.00 | 0.00 | 99 | 1021.8 |
| 20260831045832 | 71 | 123 | 0.0 | 0.0 | 0.00 | 0.00 | 0.00 | 99 | 1022.0 |
| 20260831045326 | 71 | 123 | 0.0 | 0.0 | 0.00 | 0.00 | 0.00 | 99 | 1021.8 |
| 20260831044821 | 71 | 123 | 0.0 | 0.0 | 0.00 | 0.00 | 0.00 | 99 | 1021.8 |
| 20260831044316 | 71 | 123 | 0.0 | 0.0 | 0.00 | 0.00 | 0.00 | 99 | 1021.9 |
| 20260831043812 | 71 | 123 | 0.0 | 0.0 | 0.00 | 0.00 | 0.00 | 99 | 1022.0 |
| 20260831043311 | 71 | 120 | 0.0 | 0.0 | 0.00 | 0.00 | 0.00 | 99 | 1021.9 |
| 20260831042806 | 72 | 120 | 0.0 | 0.0 | 0.00 | 0.00 | 0.00 | 99 | 1021.9 |
| 20260831042300 | 72 | 120 | 0.0 | 0.0 | 0.00 | 0.00 | 0.00 | 99 | 1022.1 |
| 20260831041756 | 72 | 120 | 0.0 | 0.0 | 0.00 | 0.00 | 0.00 | 99 | 1022.1 |
| 20260831041255 | 72 | 120 | 0.0 | 0.0 | 0.00 | 0.00 | 0.00 | 99 | 1022.1 |
| 20260831040750 | 72 | 120 | 0.0 | 0.0 | 0.00 | 0.00 | 0.00 | 98 | 1021.8 |
| 20260831040249 | 72 | 120 | 0.0 | 0.0 | 0.00 | 0.00 | 0.00 | 98 | 1021.8 |
| 20260831035748 | 72 | 120 | 0.0 | 0.0 | 0.00 | 0.00 | 0.00 | 98 | 1021.9 |
| 20260831035247 | 72 | 120 | 0.0 | 0.0 | 0.00 | 0.00 | 0.00 | 98 | 1021.7 |
| 20260831034746 | 72 | 120 | 0.0 | 0.0 | 0.00 | 0.00 | 0.00 | 98 | 1021.8 |
| 20260831034242 | 72 | 120 | 0.0 | 0.0 | 0.00 | 0.00 | 0.00 | 97 | 1021.9 |
| 20260831033737 | 72 | 120 | 0.0 | 0.0 | 0.00 | 0.00 | 0.00 | 97 | 1021.7 |
| 20260831033237 | 72 | 120 | 0.0 | 0.0 | 0.00 | 0.00 | 0.00 | 97 | 1021.8 |
| 20260831032732 | 72 | 120 | 0.0 | 0.0 | 0.00 | 0.00 | 0.00 | 97 | 1021.7 |
| 20260831032227 | 72 | 122 | 0.0 | 0.0 | 0.00 | 0.00 | 0.00 | 97 | 1022.0 |
| 20260831031722 | 72 | 120 | 0.0 | 0.0 | 0.00 | 0.00 | 0.00 | 96 | 1021.9 |
| 20260831031217 | 73 | 120 | 0.0 | 0.0 | 0.00 | 0.00 | 0.00 | 96 | 1021.8 |
| 20260831030716 | 73 | 120 | 0.0 | 0.0 | 0.00 | 0.00 | 0.00 | 96 | 1021.7 |
| 20260831030215 | 73 | 120 | 0.0 | 0.0 | 0.00 | 0.00 | 0.00 | 96 | 1021.9 |
| 20260831025714 | 73 | 120 | 0.0 | 0.0 | 0.00 | 0.00 | 0.00 | 95 | 1022.1 |
| 20260831025209 | 73 | 120 | 0.0 | 0.0 | 0.00 | 0.00 | 0.00 | 95 | 1021.9 |
| 20260831024705 | 73 | 120 | 0.0 | 0.0 | 0.00 | 0.00 | 0.00 | 95 | 1021.9 |
| 20260831024203 | 73 | 120 | 0.0 | 0.0 | 0.00 | 0.00 | 0.00 | 95 | 1021.9 |
| 20260831023701 | 73 | 120 | 0.0 | 0.0 | 0.00 | 0.00 | 0.00 | 94 | 1021.7 |
| 20260831023155 | 74 | 120 | 0.0 | 0.0 | 0.00 | 0.00 | 0.00 | 94 | 1021.9 |
| 20260831022651 | 74 | 121 | 0.0 | 0.0 | 0.00 | 0.00 | 0.00 | 93 | 1021.8 |
| 20260831022145 | 74 | 121 | 0.0 | 0.0 | 0.00 | 0.00 | 0.00 | 93 | 1021.8 |
| 20260831021644 | 74 | 120 | 0.0 | 0.0 | 0.00 | 0.00 | 0.00 | 93 | 1021.6 |
| 20260831021134 | 74 | 120 | 0.0 | 0.0 | 0.00 | 0.00 | 0.00 | 92 | 1021.7 |
| 20260831020630 | 74 | 120 | 0.0 | 0.0 | 0.00 | 0.00 | 0.00 | 91 | 1021.6 |
| 20260831020125 | 75 | 120 | 0.0 | 0.0 | 0.00 | 0.00 | 0.00 | 91 | 1021.2 |
| 20260831015620 | 75 | 120 | 0.0 | 0.0 | 0.00 | 0.00 | 0.00 | 91 | 1021.4 |
| 20260831015114 | 75 | 121 | 0.0 | 0.0 | 0.00 | 0.00 | 0.00 | 90 | 1021.4 |
| 20260831014609 | 75 | 121 | 0.0 | 0.0 | 0.00 | 0.00 | 0.00 | 89 | 1021.3 |
| 20260831014105 | 75 | 121 | 0.0 | 0.0 | 0.00 | 0.00 | 0.00 | 87 | 1021.3 |
| 20260831013601 | 75 | 120 | 0.0 | 0.0 | 0.00 | 0.00 | 0.00 | 87 | 1021.2 |
| 20260831013100 | 75 | 120 | 0.0 | 0.0 | 0.00 | 0.00 | 0.00 | 86 | 1021.2 |
| 20260831012554 | 76 | 120 | 0.0 | 0.0 | 0.00 | 0.00 | 0.00 | 86 | 1021.3 |
| 20260831012049 | 76 | 120 | 0.0 | 0.0 | 0.00 | 0.00 | 0.00 | 85 | 1021.4 |
| 20260831011549 | 76 | 120 | 0.0 | 0.0 | 0.00 | 0.00 | 0.00 | 85 | 1021.2 |
| 20260831011044 | 77 | 120 | 0.0 | 0.0 | 0.00 | 0.00 | 0.00 | 86 | 1021.2 |
| 20260831010539 | 77 | 120 | 0.0 | 0.0 | 0.00 | 0.00 | 0.00 | 86 | 1021.2 |
| 20260831010036 | 77 | 121 | 0.0 | 0.0 | 0.00 | 0.00 | 0.00 | 85 | 1021.2 |
| 20260831005531 | 78 | 120 | 0.0 | 0.0 | 0.00 | 0.00 | 0.00 | 84 | 1021.0 |
| 20260831005030 | 78 | 120 | 0.0 | 0.0 | 0.00 | 0.00 | 0.00 | 83 | 1021.1 |
| 20260831004527 | 78 | 120 | 0.0 | 0.0 | 0.00 | 0.00 | 0.00 | 83 | 1021.0 |
| 20260831004022 | 79 | 120 | 0.0 | 0.0 | 0.00 | 0.00 | 0.00 | 83 | 1020.9 |
| 20260831003518 | 79 | 120 | 0.0 | 0.0 | 0.00 | 0.00 | 0.00 | 81 | 1021.0 |
| 20260831003014 | 80 | 121 | 0.0 | 0.0 | 0.00 | 0.00 | 0.00 | 80 | 1020.7 |
| 20260831002512 | 81 | 121 | 0.0 | 0.0 | 0.00 | 0.00 | 0.00 | 78 | 1021.0 |
| 20260831002008 | 82 | 120 | 0.0 | 0.0 | 0.00 | 0.00 | 0.00 | 77 | 1020.8 |
| 20260831001503 | 83 | 121 | 0.0 | 0.0 | 0.00 | 0.00 | 0.00 | 74 | 1020.7 |
| 20260831001000 | 84 | 121 | 0.0 | 0.0 | 0.00 | 0.00 | 0.00 | 72 | 1020.8 |
| 20260831000455 | 85 | 121 | 0.0 | 0.0 | 0.00 | 0.00 | 0.00 | 69 | 1020.6 |
| 20260830235953 | 86 | 121 | 0.0 | 0.0 | 0.00 | 0.00 | 0.00 | 67 | 1020.8 |
| 20260830235448 | 88 | 121 | 0.0 | 0.0 | 0.00 | 0.00 | 0.00 | 62 | 1020.8 |
| 20260830234944 | 89 | 132 | 0.0 | 0.0 | 0.00 | 0.00 | 0.00 | 61 | 1020.8 |
| 20260830234438 | 90 | 132 | 0.0 | 0.0 | 0.00 | 0.00 | 0.00 | 57 | 1020.6 |
| 20260830233934 | 91 | 136 | 1.0 | 1.0 | 0.00 | 0.00 | 0.00 | 55 | 1020.7 |
| 20260830233430 | 92 | 138 | 0.0 | 1.0 | 0.00 | 0.00 | 0.00 | 53 | 1020.9 |
| 20260830232925 | 92 | 141 | 0.0 | 1.0 | 0.00 | 0.00 | 0.00 | 51 | 1020.8 |
| 20260830232420 | 92 | 139 | 0.0 | 3.0 | 0.00 | 0.00 | 0.00 | 52 | 1020.8 |
| 20260830231917 | 92 | 130 | 0.0 | 1.0 | 0.00 | 0.00 | 0.00 | 50 | 1020.8 |
| 20260830231412 | 92 | 159 | 1.0 | 3.0 | 0.00 | 0.00 | 0.00 | 50 | 1020.7 |
| 20260830230911 | 93 | 146 | 1.0 | 2.0 | 0.00 | 0.00 | 0.00 | 49 | 1020.8 |
| 20260830230407 | 93 | 149 | 1.0 | 2.0 | 0.00 | 0.00 | 0.00 | 48 | 1020.8 |
| 20260830225906 | 93 | 208 | 1.0 | 6.0 | 0.00 | 0.00 | 0.00 | 49 | 1020.7 |
| 20260830225401 | 93 | 137 | 0.0 | 3.0 | 0.00 | 0.00 | 0.00 | 49 | 1020.8 |
| 20260830224856 | 94 | 125 | 1.0 | 1.0 | 0.00 | 0.00 | 0.00 | 48 | 1020.6 |
| 20260830224355 | 93 | 159 | 1.0 | 2.0 | 0.00 | 0.00 | 0.00 | 48 | 1020.7 |
| 20260830223852 | 94 | 142 | 0.0 | 1.0 | 0.00 | 0.00 | 0.00 | 47 | 1020.5 |
| 20260830223348 | 94 | 211 | 2.0 | 3.0 | 0.00 | 0.00 | 0.00 | 46 | 1020.7 |
| 20260830222847 | 95 | 142 | 1.0 | 5.0 | 0.00 | 0.00 | 0.00 | 47 | 1020.5 |
| 20260830222343 | 96 | 257 | 3.0 | 3.0 | 0.00 | 0.00 | 0.00 | 44 | 1020.7 |
| 20260830221838 | 95 | 204 | 1.0 | 2.0 | 0.00 | 0.00 | 0.00 | 45 | 1020.6 |
| 20260830221335 | 95 | 146 | 0.0 | 2.0 | 0.00 | 0.00 | 0.00 | 45 | 1020.8 |
| 20260830220830 | 95 | 256 | 3.0 | 3.0 | 0.00 | 0.00 | 0.00 | 45 | 1020.9 |
| 20260830220329 | 95 | 155 | 1.0 | 3.0 | 0.00 | 0.00 | 0.00 | 45 | 1020.8 |
| 20260830215827 | 95 | 146 | 2.0 | 2.0 | 0.00 | 0.00 | 0.00 | 45 | 1020.9 |
| 20260830215322 | 95 | 167 | 0.0 | 3.0 | 0.00 | 0.00 | 0.00 | 45 | 1020.9 |
| 20260830214818 | 95 | 270 | 2.0 | 3.0 | 0.00 | 0.00 | 0.00 | 45 | 1020.9 |
| 20260830214313 | 94 | 165 | 1.0 | 5.0 | 0.00 | 0.00 | 0.00 | 45 | 1021.2 |
| 20260830213812 | 95 | 153 | 1.0 | 2.0 | 0.00 | 0.00 | 0.00 | 44 | 1021.1 |
| 20260830213307 | 95 | 142 | 3.0 | 5.0 | 0.00 | 0.00 | 0.00 | 44 | 1021.2 |
| 20260830212803 | 95 | 148 | 1.0 | 5.0 | 0.00 | 0.00 | 0.00 | 44 | 1021.2 |